Regional Weather Roundup
Issued by NWS

Home | Current Version | Previous Version | Text Only | Print | Product List | Glossary Off
Versions: 1 2 3 4 5 6 7 8 9 10 11 12 13 14 15 16 17 18 19 20 21 22 23 24 25 26 27 28 29 30 31 32 33 34 35 36 37 38 39 40 41 42 43 44 45 46 47 48 49 50

000
ASUS43 KIND 270059
RWRIN

WEATHER ROUNDUP FOR INDIANA
NATIONAL WEATHER SERVICE INDIANAPOLIS IN
900 PM EDT WED APR 26 2017

NOTE: "FAIR" INDICATES FEW OR NO CLOUDS BELOW 12,000 FEET WITH NO
SIGNIFICANT WEATHER AND/OR OBSTRUCTIONS TO VISIBILITY.

* - STATION DOES NOT REPORT WEATHER SUCH AS PRECIPITATION OR FOG.

+ - STATION NOT QUALITY CONTROLLED BY THE NATIONAL WEATHER SERVICE.
    USE DATA WITH CAUTION...ESPECIALLY DEWPOINT AND RELATIVE
    HUMIDITY OBSERVATIONS.

INZ001>003-010>013-019-020-270200-
NORTHWEST INDIANA

CITY           SKY/WX    TMP DP  RH WIND       PRES   REMARKS
GARY /AIRPORT/ MOCLDY    75  50  41 SW5       29.46F
KNOX *+        CLOUDY    68  37  32 E3        29.45F
MONTICELLO +   CLOUDY    65  60  86 SW7       29.47R

$$

LMZ046-743>745-270200-
SOUTHERN LAKE MICHIGAN

STATION/POSITION TIME  TEMP    WIND        PRES    WAVE
                       AIR SEA DIR/SP/G            HT
                 (UTC) (F)     (DEG/KT/KT) (MB)    (FT)
BURNS HARBOR     0040   73     190/  8/ 12  997.6F
MICHIGAN CITY    0030   73     170/  6/  7   N/A
5NW MICH CITY    0050   64 49                N/A     1

$$

INZ004-005-014>016-021>024-270200-
NORTH CENTRAL INDIANA

CITY           SKY/WX    TMP DP  RH WIND       PRES   REMARKS
ELKHART        MOCLDY    73  55  53 SW9       29.51R
GOSHEN         LGT RAIN  73  55  53 SW10      29.53R
SOUTH BEND     LGT RAIN  70  55  59 S7        29.48F

$$

INZ006>009-017-018-025>027-270200-
NORTHEAST INDIANA

CITY           SKY/WX    TMP DP  RH WIND       PRES   REMARKS
ANGOLA *+      CLEAR     72  64  78 CALM      29.51S
FORT WAYNE     CLOUDY    71  61  70 W6        29.54R THUNDER
KENDALLVILLE + CLOUDY    73  56  53 SW5       29.53R

$$

INZ028-029-035-036-043>045-051>053-270200-
WEST CENTRAL INDIANA

CITY           SKY/WX    TMP DP  RH WIND       PRES   REMARKS
CRAWFORDSVL +  CLOUDY    61  61 100 SE5       29.49F
GREENCASTLE +  FOG       55  55 100 SE5       29.44F VSB 3/4
LAFAYETTE      CLOUDY    65  61  87 S6        29.47R
TERRE HAUTE    MOCLDY    63  61  93 E3        29.48F

$$

INZ030>032-037>040-046>048-054>057-064-065-270200-
CENTRAL INDIANA

CITY           SKY/WX    TMP DP  RH WIND       PRES   REMARKS
COLUMBUS       CLEAR     75  48  38 S12       29.52F
INDIANAPOLIS   MOCLDY    66  58  75 NE7       29.50F
-EAGLE CREEK   CLOUDY    63  58  83 E5        29.50F
KOKOMO +       CLOUDY    64  61  90 SE9       29.51F
SHELBYVILLE    PTCLDY    76  56  49 S9        29.52S

$$

INZ033-034-041-042-049-050-058-059-270200-
EAST CENTRAL INDIANA

CITY           SKY/WX    TMP DP  RH WIND       PRES   REMARKS
MUNCIE         CLOUDY    79  58  48 S7        29.53R
RICHMOND +     PTCLDY    70  52  52 S12       29.58S

$$

INZ060-061-067>069-081>083-085>088-270200-
SOUTHWEST INDIANA

CITY           SKY/WX    TMP DP  RH WIND       PRES   REMARKS
EVANSVILLE     PTCLDY    68  58  70 CALM      29.48F
HUNTINGBURG *+ CLOUDY    75  58  55 SE10      29.50F

$$

INZ062-063-066-070>080-084-089>092-270200-
SOUTH CENTRAL AND SOUTHEAST INDIANA

CITY           SKY/WX    TMP DP  RH WIND       PRES   REMARKS
BLOOMINGTON    CLEAR     74  56  53 S7        29.50F
MADISON *+     CLOUDY    73  48  40 S5        29.58F
SEYMOUR +      PTCLDY    77  54  44 S8        29.53

$$





USA.gov is the U.S. government's official web portal to all federal, state and local government web resources and services.